MONITOR-4 (RS57S)

Last updated on Sun Nov 16 2025 00:04:14 GMT+0000 (Coordinated Universal Time)

1 57182U 23091S 25319.53611435 .00014075 00000+0 60533-3 0 9992 2 57182 97.5408 16.7862 0014272 128.1503 232.1021 15.22663115131721
UTC large
Height (km)
Speed (km/s)
/
Latitude / Longitude
Inclination (degrees)
Orbital Period (minutes)
Azimuth
Elevation
Range (km)
Doppler Factor

Next 0 passes for location: London (51.5072 / 0.1276)

Sorry there are no passes over London.